DAL46 KCMH-KORD

Flight info

Callsign DAL46
Flight time 1h 0m
Altitude 30000
Route PKACZ TARRY FWA WATSN4
Aircraft A320/M-SDE3FGHIRWY/LB1

Departure

Time 2026-05-09 01:21
Airport John Glenn Columbus International Airport (KCMH)

Arrival

Time 2026-05-09 02:21
Airport Chicago O'Hare International Airport (KORD)
Time Latitude Longitude Altitude Speed Heading
2026-05-09 00:38 39.99974 -82.88638 825 ft 0 kts 175°
2026-05-09 01:03 39.99984 -82.88639 825 ft 4 kts 176°
2026-05-09 01:04 40.00009 -82.88644 822 ft 4 kts 147°
2026-05-09 01:04 40.00025 -82.88668 822 ft 4 kts 105°
2026-05-09 01:04 40.00028 -82.88686 819 ft 1 kts 92°
2026-05-09 01:04 40.00028 -82.88688 819 ft 0 kts 92°
2026-05-09 01:15 40.00028 -82.88686 825 ft 4 kts 92°
2026-05-09 01:16 40.00017 -82.88499 825 ft 23 kts 96°
2026-05-09 01:16 40.00023 -82.88323 825 ft 15 kts 51°
2026-05-09 01:16 40.00080 -82.88243 825 ft 11 kts 83°
2026-05-09 01:17 40.00073 -82.88071 822 ft 8 kts 94°
2026-05-09 01:17 40.00073 -82.88068 823 ft 0 kts 95°
2026-05-09 01:17 40.00071 -82.88044 825 ft 1 kts 95°
2026-05-09 01:17 40.00070 -82.88025 825 ft 8 kts 95°
2026-05-09 01:18 40.00077 -82.87959 823 ft 7 kts 53°
2026-05-09 01:18 40.00078 -82.87956 821 ft 0 kts 50°
2026-05-09 01:18 40.00081 -82.87953 822 ft 3 kts 42°
2026-05-09 01:19 40.00107 -82.87940 824 ft 6 kts 12°
2026-05-09 01:19 40.00163 -82.87987 821 ft 10 kts 289°
2026-05-09 01:19 40.00167 -82.88023 824 ft 0 kts 275°
2026-05-09 01:20 40.00170 -82.88105 824 ft 37 kts 272°
2026-05-09 01:20 40.00208 -82.88766 827 ft 106 kts 274°
2026-05-09 01:20 40.00284 -82.89950 938 ft 142 kts 276°
2026-05-09 01:21 40.00416 -82.91217 1458 ft 143 kts 278°
2026-05-09 01:21 40.00565 -82.92532 1915 ft 149 kts 277°
2026-05-09 01:21 40.00735 -82.93969 2119 ft 173 kts 277°
2026-05-09 01:21 40.00937 -82.95651 2311 ft 200 kts 277°
2026-05-09 01:22 40.01123 -82.97508 2667 ft 220 kts 274°
2026-05-09 01:22 40.01272 -82.99595 3070 ft 242 kts 274°
2026-05-09 01:22 40.01433 -83.01826 3846 ft 249 kts 273°
2026-05-09 01:22 40.01619 -83.04100 4648 ft 254 kts 273°
2026-05-09 01:23 40.01823 -83.06374 4929 ft 253 kts 274°
2026-05-09 01:23 40.01907 -83.08676 5354 ft 255 kts 267°
2026-05-09 01:23 40.01901 -83.10974 6398 ft 252 kts 266°
2026-05-09 01:23 40.01878 -83.13260 7307 ft 252 kts 266°
2026-05-09 01:24 40.01848 -83.15552 8204 ft 253 kts 266°
2026-05-09 01:24 40.01820 -83.17847 9162 ft 252 kts 267°
2026-05-09 01:24 40.01794 -83.20125 10082 ft 251 kts 268°
2026-05-09 01:24 40.01769 -83.22425 10525 ft 268 kts 268°
2026-05-09 01:25 40.01740 -83.24960 10732 ft 291 kts 269°
2026-05-09 01:25 40.01707 -83.27690 11040 ft 308 kts 269°
2026-05-09 01:25 40.01673 -83.30558 11667 ft 315 kts 269°
2026-05-09 01:25 40.01640 -83.33394 12352 ft 319 kts 269°
2026-05-09 01:26 40.01608 -83.36302 13035 ft 323 kts 270°
2026-05-09 01:26 40.01579 -83.39247 13706 ft 327 kts 270°
2026-05-09 01:26 40.01549 -83.42236 14305 ft 331 kts 270°
2026-05-09 01:26 40.01518 -83.45242 14940 ft 333 kts 270°
2026-05-09 01:27 40.01483 -83.48281 15574 ft 336 kts 270°
2026-05-09 01:27 40.01445 -83.51336 16203 ft 338 kts 270°
2026-05-09 01:27 40.01406 -83.54423 16843 ft 340 kts 269°
2026-05-09 01:27 40.01373 -83.57521 17472 ft 343 kts 271°
2026-05-09 01:28 40.01632 -83.60617 18084 ft 346 kts 278°
2026-05-09 01:28 40.02023 -83.63724 18640 ft 348 kts 278°
2026-05-09 01:28 40.02407 -83.66779 19199 ft 350 kts 278°
2026-05-09 01:28 40.02801 -83.69914 19781 ft 351 kts 278°
2026-05-09 01:29 40.03193 -83.73061 20343 ft 352 kts 278°
2026-05-09 01:29 40.03584 -83.76219 20902 ft 353 kts 278°
2026-05-09 01:29 40.03974 -83.79399 21454 ft 355 kts 277°
2026-05-09 01:29 40.04360 -83.82587 21995 ft 356 kts 277°
2026-05-09 01:30 40.04748 -83.85783 22520 ft 357 kts 277°
2026-05-09 01:30 40.05283 -83.88957 23021 ft 361 kts 285°
2026-05-09 01:30 40.06318 -83.91960 23492 ft 367 kts 296°
2026-05-09 01:30 40.07705 -83.94458 23872 ft 375 kts 306°
2026-05-09 01:31 40.09500 -83.96904 24257 ft 378 kts 308°
2026-05-09 01:31 40.11354 -83.99402 24665 ft 379 kts 308°
2026-05-09 01:31 40.12572 -84.01045 24908 ft 380 kts 307°
2026-05-09 01:31 40.14415 -84.03536 25273 ft 382 kts 307°
2026-05-09 01:32 40.16261 -84.06037 25636 ft 383 kts 307°
2026-05-09 01:32 40.18112 -84.08550 26007 ft 384 kts 307°
2026-05-09 01:32 40.19971 -84.11076 26334 ft 386 kts 307°
2026-05-09 01:32 40.21836 -84.13611 26673 ft 387 kts 307°
2026-05-09 01:33 40.23713 -84.16166 26995 ft 389 kts 307°
2026-05-09 01:33 40.25589 -84.18723 27325 ft 391 kts 307°
2026-05-09 01:33 40.27476 -84.21290 27641 ft 392 kts 307°
2026-05-09 01:33 40.29371 -84.23869 27947 ft 393 kts 307°
2026-05-09 01:34 40.31270 -84.26460 28244 ft 395 kts 307°
2026-05-09 01:34 40.33175 -84.29063 28530 ft 396 kts 307°
2026-05-09 01:34 40.35086 -84.31676 28826 ft 398 kts 307°
2026-05-09 01:34 40.37007 -84.34304 29090 ft 400 kts 307°
2026-05-09 01:35 40.38931 -84.36937 29351 ft 401 kts 307°
2026-05-09 01:35 40.40864 -84.39582 29627 ft 401 kts 307°
2026-05-09 01:35 40.42792 -84.42223 29873 ft 400 kts 307°
2026-05-09 01:35 40.44697 -84.44829 29905 ft 393 kts 307°
2026-05-09 01:36 40.48470 -84.50003 29903 ft 390 kts 306°
2026-05-09 01:36 40.52204 -84.55149 29899 ft 389 kts 306°
2026-05-09 01:37 40.55933 -84.60304 29896 ft 389 kts 306°
2026-05-09 01:37 40.59643 -84.65430 29895 ft 389 kts 306°
2026-05-09 01:38 40.63373 -84.70592 29884 ft 389 kts 306°
2026-05-09 01:38 40.67108 -84.75765 29879 ft 390 kts 306°
2026-05-09 01:39 40.70844 -84.80953 29874 ft 390 kts 306°
2026-05-09 01:39 40.74577 -84.86139 29868 ft 390 kts 306°
2026-05-09 01:40 40.78314 -84.91340 29868 ft 390 kts 306°
2026-05-09 01:40 40.82044 -84.96543 29895 ft 390 kts 306°
2026-05-09 01:41 40.85770 -85.01754 29880 ft 390 kts 306°
2026-05-09 01:41 40.89491 -85.06965 29863 ft 390 kts 306°
2026-05-09 01:42 40.93217 -85.12198 29854 ft 391 kts 306°
2026-05-09 01:42 40.96921 -85.17419 29853 ft 392 kts 305°
2026-05-09 01:43 41.00659 -85.22736 29854 ft 389 kts 305°
2026-05-09 01:43 41.04286 -85.27991 29874 ft 388 kts 304°
2026-05-09 01:44 41.07917 -85.33297 29865 ft 388 kts 304°
2026-05-09 01:44 41.11061 -85.38979 29799 ft 373 kts 287°
2026-05-09 01:45 41.11710 -85.42248 28985 ft 364 kts 273°
2026-05-09 01:45 41.11786 -85.45614 28120 ft 366 kts 269°
2026-05-09 01:45 41.11811 -85.49004 27799 ft 369 kts 269°
2026-05-09 01:45 41.11834 -85.52411 27479 ft 369 kts 269°
2026-05-09 01:46 41.11858 -85.55826 27164 ft 369 kts 269°
2026-05-09 01:46 41.11889 -85.59216 26846 ft 368 kts 270°
2026-05-09 01:46 41.11923 -85.62613 26492 ft 367 kts 270°
2026-05-09 01:46 41.11956 -85.65989 26113 ft 365 kts 270°
2026-05-09 01:47 41.11990 -85.69352 25736 ft 364 kts 270°
2026-05-09 01:47 41.12022 -85.72706 25364 ft 363 kts 270°
2026-05-09 01:47 41.12052 -85.76051 24997 ft 362 kts 270°
2026-05-09 01:47 41.12081 -85.79383 24543 ft 360 kts 270°
2026-05-09 01:48 41.12109 -85.82702 24096 ft 359 kts 270°
2026-05-09 01:48 41.12137 -85.86010 23651 ft 357 kts 270°
2026-05-09 01:48 41.12164 -85.89295 23167 ft 356 kts 270°
2026-05-09 01:48 41.12190 -85.92569 22646 ft 355 kts 270°
2026-05-09 01:49 41.12216 -85.95846 22131 ft 354 kts 270°
2026-05-09 01:49 41.12242 -85.99111 21626 ft 353 kts 270°
2026-05-09 01:49 41.12268 -86.02373 21129 ft 353 kts 270°
2026-05-09 01:49 41.12292 -86.05623 20635 ft 352 kts 270°
2026-05-09 01:50 41.12312 -86.08871 20160 ft 352 kts 270°
2026-05-09 01:50 41.12331 -86.12115 19688 ft 352 kts 270°
2026-05-09 01:50 41.12351 -86.15355 19225 ft 351 kts 270°
2026-05-09 01:50 41.12371 -86.18593 18762 ft 351 kts 270°
2026-05-09 01:51 41.12390 -86.21826 18312 ft 351 kts 271°
2026-05-09 01:51 41.12409 -86.25069 17822 ft 351 kts 271°
2026-05-09 01:51 41.12423 -86.28307 17312 ft 350 kts 270°
2026-05-09 01:51 41.12435 -86.31484 16814 ft 348 kts 270°
2026-05-09 01:52 41.12446 -86.34691 16314 ft 346 kts 270°
2026-05-09 01:52 41.12459 -86.37875 15831 ft 345 kts 270°
2026-05-09 01:52 41.12472 -86.41055 15350 ft 343 kts 270°
2026-05-09 01:52 41.12487 -86.44211 14878 ft 341 kts 270°
2026-05-09 01:53 41.12503 -86.47352 14410 ft 339 kts 270°
2026-05-09 01:53 41.12511 -86.50481 13945 ft 338 kts 270°
2026-05-09 01:53 41.12516 -86.53590 13468 ft 336 kts 270°
2026-05-09 01:53 41.12521 -86.56682 12966 ft 335 kts 270°
2026-05-09 01:54 41.12661 -86.59755 12463 ft 333 kts 278°
2026-05-09 01:54 41.13185 -86.62737 12108 ft 333 kts 287°
2026-05-09 01:54 41.14076 -86.65578 12062 ft 335 kts 296°
2026-05-09 01:54 41.15191 -86.68259 12065 ft 335 kts 297°
2026-05-09 01:55 41.16328 -86.70963 12066 ft 336 kts 297°
2026-05-09 01:55 41.17469 -86.73678 12065 ft 336 kts 297°
2026-05-09 01:55 41.18607 -86.76395 12065 ft 336 kts 297°
2026-05-09 01:55 41.19741 -86.79110 12063 ft 336 kts 297°
2026-05-09 01:56 41.20877 -86.81834 12067 ft 336 kts 297°
2026-05-09 01:56 41.22009 -86.84556 12062 ft 336 kts 297°
2026-05-09 01:56 41.23143 -86.87276 12066 ft 337 kts 297°
2026-05-09 01:56 41.24279 -86.89995 12065 ft 336 kts 297°
2026-05-09 01:57 41.25404 -86.92702 12056 ft 335 kts 297°
2026-05-09 01:57 41.26532 -86.95418 12058 ft 336 kts 297°
2026-05-09 01:57 41.27660 -86.98140 12057 ft 337 kts 297°
2026-05-09 01:57 41.28792 -87.00869 12055 ft 336 kts 297°
2026-05-09 01:58 41.29909 -87.03559 12054 ft 336 kts 297°
2026-05-09 01:58 41.31043 -87.06288 12059 ft 337 kts 297°
2026-05-09 01:58 41.32175 -87.09022 12055 ft 337 kts 297°
2026-05-09 01:58 41.33305 -87.11758 12054 ft 337 kts 297°
2026-05-09 01:59 41.34433 -87.14490 12053 ft 337 kts 297°
2026-05-09 01:59 41.35568 -87.17222 12053 ft 337 kts 299°
2026-05-09 01:59 41.36950 -87.19749 12059 ft 339 kts 310°
2026-05-09 01:59 41.38661 -87.21931 12059 ft 340 kts 316°
2026-05-09 02:00 41.40415 -87.24029 11885 ft 337 kts 315°
2026-05-09 02:00 41.42151 -87.26112 11325 ft 335 kts 316°
2026-05-09 02:00 41.43860 -87.28160 11074 ft 334 kts 316°
2026-05-09 02:00 41.45590 -87.30234 11043 ft 335 kts 316°
2026-05-09 02:01 41.47325 -87.32315 11048 ft 336 kts 316°
2026-05-09 02:01 41.49063 -87.34400 11036 ft 336 kts 316°
2026-05-09 02:01 41.50868 -87.36393 11035 ft 337 kts 322°
2026-05-09 02:01 41.52815 -87.38138 11036 ft 338 kts 324°
2026-05-09 02:02 41.54766 -87.39878 11038 ft 336 kts 324°
2026-05-09 02:02 41.56704 -87.41612 11033 ft 334 kts 324°
2026-05-09 02:02 41.58631 -87.43342 11036 ft 334 kts 324°
2026-05-09 02:02 41.60561 -87.45073 11034 ft 334 kts 324°
2026-05-09 02:03 41.62496 -87.46811 11032 ft 334 kts 324°
2026-05-09 02:03 41.64425 -87.48543 11033 ft 334 kts 324°
2026-05-09 02:03 41.66282 -87.50400 11030 ft 333 kts 318°
2026-05-09 02:03 41.68046 -87.52410 11035 ft 333 kts 318°
2026-05-09 02:04 41.69806 -87.54414 11034 ft 333 kts 318°
2026-05-09 02:04 41.71597 -87.56450 11033 ft 333 kts 318°
2026-05-09 02:04 41.73360 -87.58460 11024 ft 333 kts 317°
2026-05-09 02:04 41.75129 -87.60463 11035 ft 333 kts 318°
2026-05-09 02:05 41.76748 -87.62623 10906 ft 329 kts 305°
2026-05-09 02:05 41.77815 -87.65329 10652 ft 326 kts 293°
2026-05-09 02:05 41.78718 -87.68145 10411 ft 325 kts 293°
2026-05-09 02:05 41.79602 -87.70930 10169 ft 323 kts 293°
2026-05-09 02:06 41.80469 -87.73670 9925 ft 309 kts 294°
2026-05-09 02:06 41.81261 -87.76173 9999 ft 276 kts 294°
2026-05-09 02:06 41.81989 -87.78474 10019 ft 264 kts 294°
2026-05-09 02:07 41.83423 -87.82985 9861 ft 261 kts 294°
2026-05-09 02:07 41.84135 -87.85220 9728 ft 260 kts 294°
2026-05-09 02:07 41.84845 -87.87455 9610 ft 259 kts 294°
2026-05-09 02:07 41.85550 -87.89684 9463 ft 259 kts 294°
2026-05-09 02:08 41.86256 -87.91904 9311 ft 259 kts 294°
2026-05-09 02:08 41.86949 -87.94094 9196 ft 259 kts 294°
2026-05-09 02:08 41.87652 -87.96319 9059 ft 259 kts 294°
2026-05-09 02:08 41.88212 -87.98611 8925 ft 260 kts 283°
2026-05-09 02:09 41.88386 -88.01020 8606 ft 259 kts 271°
2026-05-09 02:09 41.88299 -88.03442 8184 ft 259 kts 269°
2026-05-09 02:09 41.88211 -88.05856 7760 ft 259 kts 269°
2026-05-09 02:09 41.88127 -88.08277 7347 ft 259 kts 269°
2026-05-09 02:10 41.88047 -88.10686 6912 ft 258 kts 268°
2026-05-09 02:10 41.87967 -88.13102 6411 ft 260 kts 268°
2026-05-09 02:10 41.87886 -88.15516 6012 ft 258 kts 267°
2026-05-09 02:10 41.87835 -88.17104 5759 ft 256 kts 268°
2026-05-09 02:11 41.87755 -88.19412 5624 ft 236 kts 267°
2026-05-09 02:11 41.87682 -88.21381 5397 ft 222 kts 267°
2026-05-09 02:11 41.87610 -88.23416 5042 ft 213 kts 267°
2026-05-09 02:11 41.87543 -88.25427 5006 ft 218 kts 267°
2026-05-09 02:12 41.87475 -88.27470 5009 ft 220 kts 267°
2026-05-09 02:12 41.87408 -88.29518 5006 ft 219 kts 267°
2026-05-09 02:12 41.87354 -88.31573 5002 ft 220 kts 272°
2026-05-09 02:12 41.87806 -88.33504 5006 ft 221 kts 304°
2026-05-09 02:13 41.88994 -88.34770 5004 ft 226 kts 338°
2026-05-09 02:13 41.90582 -88.35138 5009 ft 232 kts 354°
2026-05-09 02:13 41.92192 -88.35216 5007 ft 232 kts 356°
2026-05-09 02:13 41.93791 -88.34959 5003 ft 235 kts 19°
2026-05-09 02:14 41.95166 -88.33832 5000 ft 227 kts 42°
2026-05-09 02:14 41.96065 -88.32162 5000 ft 219 kts 66°
2026-05-09 02:14 41.96428 -88.30213 5003 ft 218 kts 89°
2026-05-09 02:14 41.96442 -88.28174 5008 ft 219 kts 90°
2026-05-09 02:15 41.96451 -88.26134 5019 ft 214 kts 90°
2026-05-09 02:15 41.96462 -88.24228 5016 ft 196 kts 90°
2026-05-09 02:15 41.96470 -88.22439 4855 ft 188 kts 90°
2026-05-09 02:15 41.96478 -88.20701 4635 ft 184 kts 90°
2026-05-09 02:16 41.96486 -88.18991 4404 ft 181 kts 90°
2026-05-09 02:16 41.96493 -88.17307 4162 ft 179 kts 91°
2026-05-09 02:16 41.96500 -88.15646 3920 ft 175 kts 90°
2026-05-09 02:16 41.96507 -88.14045 3691 ft 168 kts 91°
2026-05-09 02:17 41.96513 -88.12482 3476 ft 166 kts 91°
2026-05-09 02:17 41.96518 -88.10936 3258 ft 165 kts 91°
2026-05-09 02:17 41.96523 -88.09399 3045 ft 164 kts 91°
2026-05-09 02:17 41.96529 -88.07867 2823 ft 163 kts 91°
2026-05-09 02:18 41.96534 -88.06347 2604 ft 162 kts 91°
2026-05-09 02:18 41.96538 -88.04836 2385 ft 162 kts 91°
2026-05-09 02:18 41.96543 -88.03344 2176 ft 161 kts 92°
2026-05-09 02:18 41.96548 -88.01846 1957 ft 160 kts 92°
2026-05-09 02:19 41.96552 -88.00337 1736 ft 159 kts 93°
2026-05-09 02:19 41.96556 -87.98868 1528 ft 159 kts 93°
2026-05-09 02:19 41.96559 -87.97406 1328 ft 154 kts 92°
2026-05-09 02:19 41.96555 -87.95988 1133 ft 150 kts 91°
2026-05-09 02:20 41.96560 -87.94605 944 ft 148 kts 91°
2026-05-09 02:20 41.96575 -87.93236 733 ft 146 kts 92°
2026-05-09 02:20 41.96571 -87.91953 670 ft 121 kts 90°
2026-05-09 02:20 41.96574 -87.91067 670 ft 71 kts 89°
2026-05-09 02:21 41.96577 -87.90615 671 ft 35 kts 81°
2026-05-09 02:21 41.96647 -87.90414 669 ft 0 kts 58°
2026-05-09 02:21 41.96664 -87.90378 669 ft 16 kts 57°
2026-05-09 02:22 41.96723 -87.90236 669 ft 18 kts 68°
2026-05-09 02:22 41.96740 -87.90061 669 ft 20 kts 88°
2026-05-09 02:22 41.96741 -87.89871 668 ft 21 kts 90°
2026-05-09 02:22 41.96739 -87.89666 669 ft 23 kts 90°
2026-05-09 02:23 41.96740 -87.89521 669 ft 2 kts 88°
2026-05-09 02:23 41.96741 -87.89510 669 ft 3 kts 86°
2026-05-09 02:23 41.96800 -87.89439 669 ft 16 kts
2026-05-09 02:23 41.96907 -87.89435 670 ft 14 kts 359°
2026-05-09 02:24 41.96969 -87.89436 670 ft 0 kts 360°
2026-05-09 02:25 41.97016 -87.89437 669 ft 14 kts 359°
2026-05-09 02:25 41.97068 -87.89461 669 ft 7 kts 308°
2026-05-09 02:26 41.97111 -87.89579 669 ft 17 kts 302°
2026-05-09 02:26 41.97191 -87.89675 668 ft 13 kts 321°
2026-05-09 02:26 41.97238 -87.89744 667 ft 7 kts 297°
2026-05-09 02:26 41.97235 -87.89810 669 ft 13 kts 251°
2026-05-09 02:27 41.97206 -87.89939 669 ft 14 kts 261°
2026-05-09 02:27 41.97205 -87.90064 669 ft 12 kts 270°
2026-05-09 02:27 41.97229 -87.90157 667 ft 10 kts 333°
2026-05-09 02:27 41.97295 -87.90160 669 ft 9 kts
2026-05-09 02:28 41.97355 -87.90159 669 ft 10 kts 359°
2026-05-09 02:28 41.97423 -87.90160 669 ft 9 kts 360°
2026-05-09 02:28 41.97449 -87.90124 667 ft 5 kts 101°
2026-05-09 02:28 41.97447 -87.90095 669 ft 0 kts 92°